Regional Weather Roundup
Issued by NWS

Home | Current Version | Previous Version | Graphics & Text | Print | Product List | Glossary On
Versions: 1 2 3 4 5 6 7 8 9 10 11 12 13 14 15 16 17 18 19 20 21 22 23 24 25 26 27
000
ASUS45 KBOU 021007
RWRCO

WEATHER ROUNDUP FOR COLORADO
NATIONAL WEATHER SERVICE DENVER/BOULDER CO
400 AM MDT MON MAY 02 2016

NOTE: "FAIR" INDICATES FEW OR NO CLOUDS BELOW 12000 FEET WITH NO
SIGNIFICANT WEATHER AND/OR OBSTRUCTIONS TO VISIBILITY.

COZ001>005-013-030-031-021100-
...NORTHWEST COLORADO...

CITY           SKY/WX    TMP DP  RH WIND       PRES   REMARKS
CRAIG          FAIR      29  23  78 W5        30.22R WCI  24
HAYDEN         MOCLDY    34  25  69 SW5       30.21R WCI  30
MEEKER         CLOUDY    36  30  79 CALM      30.21R
MOUNT WERNER   NOT AVBL
STEAMBOAT SPGS FAIR      31  23  72 CALM      30.21S
WALDEN         FAIR      16  12  86 SE5       30.27R WCI   9
$$

COZ006>008-011-021100-
...WEST CENTRAL VALLEYS...

CITY           SKY/WX    TMP DP  RH WIND       PRES   REMARKS
GRAND JUNCTION MOCLDY    43  39  86 E6        30.17S
MONTROSE       CLOUDY    42  38  85 S6        30.22S
EAGLE          CLOUDY    37  30  75 CALM      30.24R
RIFLE          CLOUDY    45  40  82 CALM      30.19R
DELTA          NOT AVBL
NUCLA          NOT AVBL
$$

COZ017>023-064>068-021100-
...SOUTHWEST COLORADO...

CITY           SKY/WX    TMP DP  RH WIND       PRES   REMARKS
DURANGO        MOCLDY    35  33  92 E3        30.23S
CORTEZ         CLOUDY    41  34  76 W3        30.21S
PAGOSA SPRINGS CLOUDY    34  34 100 CALM      30.24S FOG
TELLURIDE      CLOUDY    30  30 100 CALM      30.25S
WOLF CREEK PAS SNOW      21  21 100 SW12      30.29S VSB 1/4 WCI   9
$$

COZ009-010-012-014-032>034-037-058>063-021100-
...CENTRAL COLORADO...

CITY           SKY/WX    TMP DP  RH WIND       PRES   REMARKS
ASPEN          CLOUDY    34  28  79 SW5       30.20S WCI  30
BUENA VISTA    CLOUDY    29  27  92 CALM      30.26S
COPPER MTN     NOT AVBL
BERTHOUD PASS  FAIR      12   3  67 N5G17     30.25S WCI   4
COTTONWOOD PAS CLOUDY    27  23  86 W5        30.24F WCI  21
GUNNISON       MOCLDY    34  30  86 CALM      30.26R
KREMMLING      FAIR      25  19  80 E3        30.27R
LEADVILLE      FAIR      18  15  88 CALM      30.23F
MONARCH PASS   SNOW      21  18  86 MISG      30.36R VSB 1/4
SALIDA         CLOUDY    31  29  92 CALM      30.34R
SUNLIGHT       CLOUDY    30  28  93 CALM      30.29S
WILKERSON PASS FOG      N/A N/A N/A CALM      30.25S VSB 1
$$

COZ069>075-021100-
...SAN LUIS VALLEY/SANGRE DE CRISTO MOUNTAINS...

CITY           SKY/WX    TMP DP  RH WIND       PRES   REMARKS
ALAMOSA        CLOUDY    33  28  81 NE7       30.23S WCI  27
LA VETA PASS   CLOUDY    25  23  93 MISG      30.23S FOG
SAGUACHE       LGT SNOW  32  28  86 CALM      30.25S
$$

COZ035-036-038>040-021100-
...NORTHERN COLORADO FRONT RANGE...

CITY           SKY/WX    TMP DP  RH WIND       PRES   REMARKS
DENVER INTL AP FAIR      29  23  78 SW8       30.25F WCI  21
DMNS CITY PARK   N/A     30  29  95 SE8       30.26S WCI  22
AURORA         FAIR      28  26  93 S7        30.26S WCI  21
FRONT RANGE AP NOT AVBL
ERIE MUNI ARPT FAIR      29  28  99 SW3       30.26F
BOULDER MUN AP FAIR      34  28  80 W3        30.26S
CENTENNIAL     FAIR      27  23  85 S3        30.25F
BROOMFIELD     FAIR      34  30  86 NW3       30.26F
FORT COLLINS   FAIR      30  27  86 CALM      30.26F
LONGMONT       FAIR      32  27  80 W5        30.27F HAZE    WCI  28
$$

COZ041-046-047-076>085-087-088-021100-
...PIKES PEAK/PALMER DIVIDE AND SOUTHERN FOOTHILLS...

CITY           SKY/WX    TMP DP  RH WIND       PRES   REMARKS
COLO. SPRINGS  FAIR      27  21  78 N7        30.26F WCI  19
A. F. ACADEMY  FAIR      21  18  86 N10       30.24F WCI  10
SCHRIEVER AFB  NOT AVBL
ELLICOTT       NOT AVBL
FALCON         FAIR      25  19  80 W5        30.25F WCI  19
FORT CARSON    FAIR      28  27  93 N5        30.24F WCI  23
LIMON          FAIR      23  21  92 NW5       30.25F WCI  17
MONUMENT HILL  FAIR      19  18  93 SW6       30.25F WCI  11
TRINIDAD       CLOUDY    34  31  88 W5        30.26S WCI  30
$$

COZ042>045-048>051-090-091-021100-
...NORTHEAST COLORADO...

CITY           SKY/WX    TMP DP  RH WIND       PRES   REMARKS
GREELEY ARPT     N/A     27  25  93 CALM      30.27S
AKRON          FAIR      30  24  78 W12       30.23F WCI  20
BURLINGTON     FAIR      29  24  82 W9        30.24S WCI  20
WRAY           NOT AVBL
STERLING       FAIR      28  28 100 S6        30.24S WCI  22
HOLYOKE        NOT AVBL
FORT MORGAN    FAIR      28  26  91 W8        30.25S WCI  20
$$

COZ086-089-092>099-021100-
...SOUTHEAST COLORADO...

CITY           SKY/WX    TMP DP  RH WIND       PRES   REMARKS
PUEBLO         FAIR      34  29  82 W6        30.26F WCI  29
LA JUNTA       FAIR      31  29  92 NW6       30.26F WCI  25
LAMAR          FAIR      28  26  92 S8        30.24F WCI  20
SPRINGFIELD      N/A     31  29  92 W10       30.24S WCI  22
$$




USA.gov is the U.S. government's official web portal to all federal, state and local government web resources and services.